Tracking 27122 objects as of 24-Mar-2023
HD Live streaming from Space Station
objects crossing your sky now

GALAXY 32

Track GALAXY 32 now!
GALAXY 32 is classified as:


NORAD ID: 54244
Int'l Code: 2022-153B
Perigee: 35,781.1 km
Apogee: 35,805.9 km
Inclination: 0.0 °
Period: 1,436.1 minutes
Semi major axis: 42164 km
RCS: Unknown
Launch date: November 12, 2022
Source: United States (US)
Launch site: AIR FORCE EASTERN TEST RANGE (AFETR)
Your satellite tracking list
Your tracking list is empty




NASA's NSSDC Master Catalog

Two Line Element Set (TLE):
1 54244U 22153B   23082.46095588 -.00000187  00000-0  00000-0 0  9999
2 54244   0.0415  48.2826 0002936 310.9530 256.3665  1.00272633  1303
Source of the keplerian elements: AFSPC